• In Germany
  • List of Countries
  • For 7 days
  • Water Temperature
  • Satellite Maps
  • Weather Map
  • Weather Widgets
  • user-avatar
    Login

    Hourly Weather Eisenstadt

    Today, 16 August, Wednesday

    Time Temperature Precipitation Wind Pressure Humidity
    00:00 +19°C° 0 mm 1 mps 725 mmHg 60%
    01:00 +19°C° 0 mm 1 mps 725 mmHg 61%
    02:00 +19°C° 0 mm 1 mps 725 mmHg 62%
    03:00 +18°C° 0 mm 1 mps 725 mmHg 63%
    04:00 +18°C° 0 mm 1 mps 725 mmHg 65%
    05:00 +19°C° 0 mm 1 mps 725 mmHg 62%
    06:00 +21°C° 0 mm 1 mps 725 mmHg 60%
    07:00 +22°C° 0 mm 1 mps 726 mmHg 61%
    08:00 +24°C° 0.2 mm 2 mps 726 mmHg 58%
    09:00 +26°C° 0.2 mm 2 mps 726 mmHg 54%
    10:00 +27°C° 0.2 mm 3 mps 727 mmHg 51%
    11:00 +28°C° 0.5 mm 3 mps 726 mmHg 50%
    12:00 +29°C° 0.5 mm 3 mps 726 mmHg 49%
    13:00 +29°C° 0.5 mm 2 mps 726 mmHg 47%
    14:00 +29°C° 0.5 mm 3 mps 726 mmHg 50%
    15:00 +28°C° 0.5 mm 3 mps 726 mmHg 52%
    16:00 +28°C° 0.5 mm 3 mps 725 mmHg 55%
    17:00 +26°C° 0.1 mm 3 mps 725 mmHg 59%
    18:00 +25°C° 0.1 mm 2 mps 725 mmHg 63%
    19:00 +24°C° 0.1 mm 2 mps 725 mmHg 68%
    20:00 +23°C° 0.3 mm 2 mps 725 mmHg 71%
    21:00 +21°C° 0.3 mm 2 mps 726 mmHg 74%
    22:00 +20°C° 0.3 mm 2 mps 726 mmHg 77%
    23:00 +19°C° 0 mm 2 mps 726 mmHg 80%

    Tomorrow, 17 August, Thursday

    Time Temperature Precipitation Wind Pressure Humidity
    00:00 +19°C° 0 mm 2 mps 726 mmHg 82%
    01:00 +18°C° 0 mm 2 mps 726 mmHg 84%
    02:00 +18°C° 0 mm 2 mps 726 mmHg 85%
    03:00 +17°C° 0 mm 2 mps 725 mmHg 86%
    04:00 +17°C° 0 mm 2 mps 725 mmHg 87%
    05:00 +18°C° 0 mm 2 mps 726 mmHg 84%
    06:00 +19°C° 0 mm 2 mps 726 mmHg 80%
    07:00 +20°C° 0 mm 3 mps 726 mmHg 77%
    08:00 +23°C° 0 mm 2 mps 726 mmHg 67%
    09:00 +25°C° 0 mm 2 mps 726 mmHg 58%
    10:00 +27°C° 0 mm 2 mps 726 mmHg 49%
    11:00 +29°C° 0 mm 2 mps 726 mmHg 45%
    12:00 +30°C° 0 mm 2 mps 726 mmHg 41%
    13:00 +31°C° 0 mm 2 mps 725 mmHg 37%
    14:00 +31°C° 0 mm 2 mps 725 mmHg 37%
    15:00 +31°C° 0 mm 2 mps 725 mmHg 36%
    16:00 +31°C° 0 mm 1 mps 725 mmHg 36%
    17:00 +29°C° 0 mm 1 mps 724 mmHg 42%
    18:00 +26°C° 0 mm 1 mps 724 mmHg 47%
    19:00 +24°C° 0 mm 1 mps 724 mmHg 52%
    20:00 +24°C° 0 mm 1 mps 724 mmHg 54%
    21:00 +23°C° 0 mm 1 mps 724 mmHg 57%
    22:00 +22°C° 0 mm 1 mps 724 mmHg 59%
    23:00 +21°C° 0 mm 1 mps 724 mmHg 61%

    Day after tomorrow, 18 August, Friday

    Time Temperature Precipitation Wind Pressure Humidity
    00:00 +21°C° 0 mm 1 mps 724 mmHg 63%
    01:00 +21°C° 0 mm 1 mps 724 mmHg 65%
    02:00 +20°C° 0 mm 1 mps 724 mmHg 66%
    03:00 +20°C° 0 mm 1 mps 724 mmHg 68%
    04:00 +20°C° 0 mm 1 mps 724 mmHg 69%
    05:00 +19°C° 0 mm 0 mps 724 mmHg 66%
    06:00 +20°C° 0 mm 0 mps 724 mmHg 64%
    07:00 +22°C° 0 mm 0 mps 725 mmHg 61%
    08:00 +26°C° 0 mm 1 mps 725 mmHg 54%
    09:00 +28°C° 0 mm 1 mps 725 mmHg 47%
    10:00 +30°C° 0 mm 1 mps 725 mmHg 40%
    11:00 +31°C° 0 mm 2 mps 725 mmHg 37%
    12:00 +32°C° 0 mm 2 mps 724 mmHg 34%
    13:00 +34°C° 0 mm 3 mps 724 mmHg 31%
    14:00 +34°C° 0 mm 3 mps 724 mmHg 31%
    15:00 +34°C° 0 mm 3 mps 723 mmHg 30%
    16:00 +35°C° 0 mm 3 mps 723 mmHg 30%
    17:00 +31°C° 0 mm 3 mps 722 mmHg 36%
    18:00 +29°C° 0 mm 2 mps 722 mmHg 42%
    19:00 +27°C° 0 mm 2 mps 722 mmHg 48%
    20:00 +26°C° 0 mm 2 mps 722 mmHg 49%
    21:00 +25°C° 0 mm 2 mps 722 mmHg 51%
    22:00 +24°C° 0 mm 2 mps 722 mmHg 53%
    23:00 +23°C° 0 mm 2 mps 721 mmHg 54%

    19 August, Saturday

    Time Temperature Precipitation Wind Pressure Humidity
    00:00 +23°C° 0 mm 2 mps 721 mmHg 55%
    01:00 +21°C° 0 mm 2 mps 721 mmHg 56%
    02:00 +21°C° 0 mm 2 mps 721 mmHg 58%
    03:00 +20°C° 0 mm 2 mps 721 mmHg 60%
    04:00 +20°C° 0 mm 2 mps 721 mmHg 62%
    05:00 +21°C° 0 mm 2 mps 721 mmHg 62%
    06:00 +21°C° 0 mm 3 mps 722 mmHg 63%
    07:00 +22°C° 0 mm 4 mps 722 mmHg 63%
    08:00 +23°C° 0 mm 5 mps 723 mmHg 60%
    09:00 +25°C° 0 mm 5 mps 723 mmHg 56%
    10:00 +26°C° 0 mm 6 mps 723 mmHg 53%
    11:00 +24°C° 0 mm 6 mps 723 mmHg 54%
    12:00 +23°C° 0 mm 6 mps 723 mmHg 56%
    13:00 +23°C° 0 mm 6 mps 723 mmHg 57%
    14:00 +21°C° 0.4 mm 6 mps 723 mmHg 61%
    15:00 +20°C° 0.4 mm 6 mps 723 mmHg 65%
    16:00 +18°C° 0.4 mm 7 mps 723 mmHg 69%
    17:00 +17°C° 2.4 mm 6 mps 723 mmHg 75%
    18:00 +16°C° 2.4 mm 5 mps 723 mmHg 81%
    19:00 +15°C° 2.4 mm 4 mps 724 mmHg 88%
    20:00 +14°C° 1 mm 4 mps 724 mmHg 89%
    21:00 +14°C° 1 mm 4 mps 724 mmHg 89%
    22:00 +14°C° 1 mm 4 mps 725 mmHg 90%
    23:00 +14°C° 0.1 mm 4 mps 725 mmHg 90%

    20 August, Sunday

    Time Temperature Precipitation Wind Pressure Humidity
    00:00 +14°C° 0.1 mm 4 mps 725 mmHg 91%
    01:00 +14°C° 0.1 mm 4 mps 725 mmHg 91%
    02:00 +14°C° 0 mm 4 mps 725 mmHg 90%
    03:00 +14°C° 0 mm 4 mps 725 mmHg 88%
    04:00 +14°C° 0 mm 3 mps 725 mmHg 87%
    05:00 +14°C° 0 mm 4 mps 725 mmHg 84%
    06:00 +14°C° 0 mm 4 mps 725 mmHg 81%
    07:00 +14°C° 0 mm 5 mps 726 mmHg 77%
    08:00 +16°C° 0 mm 6 mps 726 mmHg 68%
    09:00 +17°C° 0 mm 6 mps 726 mmHg 58%
    10:00 +20°C° 0 mm 7 mps 727 mmHg 49%
    11:00 +20°C° 0 mm 7 mps 727 mmHg 47%
    12:00 +21°C° 0 mm 7 mps 727 mmHg 45%
    13:00 +22°C° 0 mm 7 mps 726 mmHg 43%
    14:00 +22°C° 0 mm 7 mps 726 mmHg 44%
    15:00 +22°C° 0 mm 7 mps 726 mmHg 45%
    16:00 +22°C° 0 mm 6 mps 726 mmHg 47%
    17:00 +20°C° 0 mm 6 mps 726 mmHg 51%
    18:00 +19°C° 0 mm 5 mps 726 mmHg 56%
    19:00 +17°C° 0 mm 4 mps 727 mmHg 61%
    20:00 +15°C° 0 mm 4 mps 727 mmHg 64%
    21:00 +16°C° 0 mm 3 mps 727 mmHg 67%
    22:00 +14°C° 0 mm 3 mps 727 mmHg 69%
    23:00 +13°C° 0 mm 3 mps 727 mmHg 70%

    21 August, Monday

    Time Temperature Precipitation Wind Pressure Humidity
    00:00 +13°C° 0 mm 3 mps 727 mmHg 71%
    01:00 +13°C° 0 mm 3 mps 727 mmHg 72%
    02:00 +12°C° 0 mm 3 mps 727 mmHg 73%
    03:00 +12°C° 0 mm 3 mps 727 mmHg 74%
    04:00 +12°C° 0 mm 3 mps 727 mmHg 75%
    05:00 +13°C° 0 mm 4 mps 727 mmHg 71%
    06:00 +14°C° 0 mm 4 mps 727 mmHg 67%
    07:00 +15°C° 0 mm 5 mps 727 mmHg 63%
    08:00 +16°C° 0 mm 5 mps 727 mmHg 56%
    09:00 +19°C° 0 mm 5 mps 727 mmHg 49%
    10:00 +21°C° 0 mm 5 mps 727 mmHg 42%
    11:00 +22°C° 0 mm 5 mps 727 mmHg 40%
    12:00 +23°C° 0 mm 5 mps 726 mmHg 37%
    13:00 +25°C° 0 mm 5 mps 726 mmHg 34%
    14:00 +25°C° 0 mm 4 mps 726 mmHg 34%
    15:00 +25°C° 0 mm 4 mps 726 mmHg 34%
    16:00 +25°C° 0 mm 4 mps 725 mmHg 34%
    17:00 +22°C° 0 mm 3 mps 725 mmHg 41%
    18:00 +20°C° 0 mm 3 mps 725 mmHg 47%
    19:00 +18°C° 0 mm 2 mps 725 mmHg 53%
    20:00 +17°C° 0 mm 2 mps 725 mmHg 56%
    21:00 +16°C° 0 mm 2 mps 725 mmHg 58%
    22:00 +15°C° 0 mm 2 mps 725 mmHg 61%
    23:00 +15°C° 0 mm 2 mps 725 mmHg 61%
    Show more